Time,TemperatureF,DewpointF,PressureIn,WindDirection,WindDirectionDegrees,WindSpeedMPH,WindSpeedGustMPH,Humidity,HourlyPrecipIn,Conditions,Clouds,dailyrainin,SoftwareType,DateUTC
2013-09-09 00:14:00,59.0,46.0,30.04,WSW,256,0.0,4.0,63,0.00,,,0.01,,2013-09-09 04:14:00,
2013-09-09 00:24:00,59.0,46.0,30.05,SW,231,0.0,3.0,62,0.00,,,0.01,,2013-09-09 04:24:00,
2013-09-09 00:43:00,58.0,47.0,30.06,SSW,211,0.0,5.0,66,0.00,,,0.01,,2013-09-09 04:43:00,
2013-09-09 00:54:00,58.0,46.0,30.06,SW,233,3.0,7.0,65,0.00,,,0.01,,2013-09-09 04:54:00,
2013-09-09 01:13:00,57.0,46.0,30.06,South,188,2.0,5.0,67,0.00,,,0.01,,2013-09-09 05:13:00,
2013-09-09 01:23:00,57.0,47.0,30.06,SSW,210,0.0,5.0,69,0.00,,,0.01,,2013-09-09 05:23:00,
2013-09-09 01:53:00,56.0,47.0,30.07,SW,220,0.0,2.0,71,0.00,,,0.01,,2013-09-09 05:53:00,
2013-09-09 02:12:00,56.0,47.0,30.07,South,181,0.0,2.0,71,0.00,,,0.01,,2013-09-09 06:12:00,
2013-09-09 02:22:00,55.0,47.0,30.07,SW,231,0.0,3.0,73,0.00,,,0.01,,2013-09-09 06:22:00,
2013-09-09 02:42:00,55.0,47.0,30.08,WSW,252,1.0,4.0,73,0.00,,,0.01,,2013-09-09 06:42:00,
2013-09-09 02:52:00,54.0,46.0,30.07,SSW,208,0.0,1.0,75,0.00,,,0.01,,2013-09-09 06:52:00,
2013-09-09 03:11:00,54.0,47.0,30.08,SSW,200,0.0,2.0,76,0.00,,,0.01,,2013-09-09 07:11:00,
2013-09-09 03:22:00,53.0,46.0,30.08,SSW,212,0.0,2.0,77,0.00,,,0.01,,2013-09-09 07:22:00,
2013-09-09 03:43:00,53.0,46.0,30.09,SSW,207,0.0,1.0,78,0.00,,,0.01,,2013-09-09 07:43:00,
2013-09-09 03:52:00,52.0,46.0,30.09,SSW,198,0.0,1.0,79,0.00,,,0.00,,2013-09-09 07:52:00,
2013-09-09 04:12:00,52.0,46.0,30.09,SSW,198,0.0,3.0,81,0.00,,,0.00,,2013-09-09 08:12:00,
2013-09-09 04:22:00,51.0,46.0,30.09,SSW,200,0.0,2.0,82,0.00,,,0.00,,2013-09-09 08:22:00,
2013-09-09 04:52:00,52.0,46.0,30.11,SW,214,0.0,2.0,80,0.00,,,0.00,,2013-09-09 08:52:00,
2013-09-09 05:12:00,51.0,46.0,30.11,SSW,212,0.0,1.0,82,0.00,,,0.00,,2013-09-09 09:12:00,
2013-09-09 05:22:00,51.0,46.0,30.11,WSW,238,0.0,1.0,82,0.00,,,0.00,,2013-09-09 09:22:00,
2013-09-09 05:54:00,50.0,45.0,30.12,SW,233,3.0,4.0,84,0.00,,,0.00,,2013-09-09 09:54:00,
2013-09-09 06:12:00,51.0,46.0,30.13,SW,231,0.0,4.0,83,0.00,,,0.00,,2013-09-09 10:12:00,
2013-09-09 06:23:00,50.0,45.0,30.13,SW,214,0.0,1.0,83,0.00,,,0.00,,2013-09-09 10:23:00,
2013-09-09 06:42:00,50.0,45.0,30.14,SW,232,2.0,4.0,83,0.00,,,0.00,,2013-09-09 10:42:00,
2013-09-09 06:53:00,50.0,45.0,30.14,WSW,240,1.0,3.0,83,0.00,,,0.00,,2013-09-09 10:53:00,
2013-09-09 07:12:00,50.0,45.0,30.15,WSW,245,1.0,3.0,84,0.00,,,0.00,,2013-09-09 11:12:00,
2013-09-09 07:22:00,51.0,46.0,30.15,WSW,238,1.0,4.0,83,0.00,,,0.00,,2013-09-09 11:22:00,
2013-09-09 07:52:00,52.0,46.0,30.16,WSW,238,3.0,7.0,80,0.00,,,0.00,,2013-09-09 11:52:00,
2013-09-09 08:12:00,53.0,47.0,30.16,SW,225,4.0,7.0,80,0.00,,,0.00,,2013-09-09 12:12:00,
2013-09-09 08:22:00,54.0,47.0,30.16,SW,226,3.0,5.0,77,0.00,,,0.00,,2013-09-09 12:22:00,
2013-09-09 08:42:00,55.0,47.0,30.16,SSW,210,3.0,6.0,74,0.00,,,0.00,,2013-09-09 12:42:00,
2013-09-09 08:52:00,57.0,48.0,30.16,SW,214,2.0,6.0,72,0.00,,,0.00,,2013-09-09 12:52:00,
2013-09-09 09:11:00,58.0,48.0,30.16,WSW,250,5.0,9.0,69,0.00,,,0.00,,2013-09-09 13:11:00,
2013-09-09 09:22:00,59.0,48.0,30.16,West,261,6.0,10.0,68,0.00,,,0.00,,2013-09-09 13:22:00,
2013-09-09 09:42:00,60.0,49.0,30.17,SSW,207,4.0,10.0,68,0.00,,,0.00,,2013-09-09 13:42:00,
2013-09-09 09:52:00,60.0,50.0,30.17,SW,215,2.0,10.0,70,0.00,,,0.00,,2013-09-09 13:52:00,
2013-09-09 10:12:00,60.0,50.0,30.17,WSW,245,7.0,12.0,69,0.00,,,0.00,,2013-09-09 14:12:00,
2013-09-09 10:22:00,61.0,51.0,30.17,WNW,288,4.0,7.0,70,0.00,,,0.00,,2013-09-09 14:22:00,
2013-09-09 10:42:00,62.0,52.0,30.17,West,281,4.0,7.0,69,0.00,,,0.00,,2013-09-09 14:42:00,
2013-09-09 10:52:00,63.0,52.0,30.18,WSW,256,1.0,6.0,68,0.00,,,0.00,,2013-09-09 14:52:00,
2013-09-09 11:11:00,63.0,52.0,30.17,WSW,245,5.0,8.0,68,0.00,,,0.00,,2013-09-09 15:11:00,
2013-09-09 11:22:00,64.0,54.0,30.17,NW,312,1.0,5.0,70,0.00,,,0.00,,2013-09-09 15:22:00,
2013-09-09 11:43:00,66.0,54.0,30.17,West,264,4.0,8.0,66,0.00,,,0.00,,2013-09-09 15:43:00,
2013-09-09 11:53:00,67.0,56.0,30.17,WNW,302,3.0,9.0,67,0.00,,,0.00,,2013-09-09 15:53:00,
2013-09-09 12:13:00,67.0,56.0,30.16,West,273,4.0,8.0,67,0.00,,,0.00,,2013-09-09 16:13:00,
2013-09-09 12:25:00,67.0,55.0,30.16,WNW,284,6.0,11.0,66,0.00,,,0.00,,2013-09-09 16:25:00,
2013-09-09 12:43:00,68.0,56.0,30.16,NW,312,5.0,12.0,66,0.00,,,0.00,,2013-09-09 16:43:00,
2013-09-09 12:54:00,68.0,56.0,30.16,NW,314,4.0,9.0,66,0.00,,,0.00,,2013-09-09 16:54:00,
2013-09-09 13:12:00,69.0,57.0,30.15,NNW,330,7.0,10.0,66,0.00,,,0.00,,2013-09-09 17:12:00,
2013-09-09 13:23:00,69.0,58.0,30.15,NW,309,5.0,8.0,67,0.00,,,0.00,,2013-09-09 17:23:00,
2013-09-09 13:53:00,71.0,58.0,30.14,NNW,330,5.0,10.0,64,0.00,,,0.00,,2013-09-09 17:53:00,
2013-09-09 14:13:00,71.0,58.0,30.14,ENE,65,3.0,8.0,64,0.00,,,0.00,,2013-09-09 18:13:00,
2013-09-09 14:22:00,70.0,58.0,30.14,North,352,6.0,9.0,65,0.00,,,0.00,,2013-09-09 18:22:00,
2013-09-09 14:52:00,72.0,60.0,30.13,NNW,343,5.0,8.0,65,0.00,,,0.00,,2013-09-09 18:52:00,
2013-09-09 15:12:00,72.0,59.0,30.13,NE,40,6.0,9.0,64,0.00,,,0.00,,2013-09-09 19:12:00,
2013-09-09 15:22:00,72.0,59.0,30.13,NNE,23,6.0,9.0,63,0.00,,,0.00,,2013-09-09 19:22:00,
2013-09-09 15:43:00,73.0,59.0,30.11,ENE,68,10.0,13.0,61,0.00,,,0.00,,2013-09-09 19:43:00,
2013-09-09 15:52:00,73.0,59.0,30.12,NE,41,7.0,9.0,61,0.00,,,0.00,,2013-09-09 19:52:00,
2013-09-09 16:12:00,73.0,60.0,30.12,NNW,330,5.0,10.0,63,0.00,,,0.00,,2013-09-09 20:12:00,
2013-09-09 16:22:00,73.0,58.0,30.11,North,9,9.0,12.0,60,0.00,,,0.00,,2013-09-09 20:22:00,
2013-09-09 16:42:00,73.0,58.0,30.11,NE,43,9.0,14.0,60,0.00,,,0.00,,2013-09-09 20:42:00,
2013-09-09 16:53:00,73.0,61.0,30.10,NE,42,7.0,11.0,65,0.00,,,0.00,,2013-09-09 20:53:00,
2013-09-09 17:12:00,73.0,60.0,30.10,NE,46,5.0,9.0,64,0.00,,,0.00,,2013-09-09 21:12:00,
2013-09-09 17:22:00,73.0,59.0,30.10,NNE,18,8.0,13.0,62,0.00,,,0.00,,2013-09-09 21:22:00,
2013-09-09 17:44:00,73.0,57.0,30.10,NNW,335,8.0,11.0,58,0.00,,,0.00,,2013-09-09 21:44:00,
2013-09-09 17:54:00,73.0,57.0,30.10,NNW,345,5.0,9.0,58,0.00,,,0.00,,2013-09-09 21:54:00,
2013-09-09 18:13:00,72.0,58.0,30.10,NNW,342,3.0,8.0,61,0.00,,,0.00,,2013-09-09 22:13:00,
2013-09-09 18:24:00,72.0,58.0,30.10,NNW,347,6.0,8.0,62,0.00,,,0.00,,2013-09-09 22:24:00,
2013-09-09 18:43:00,72.0,58.0,30.09,NW,321,7.0,10.0,62,0.00,,,0.00,,2013-09-09 22:43:00,
2013-09-09 18:54:00,72.0,59.0,30.09,NNW,334,3.0,9.0,64,0.00,,,0.00,,2013-09-09 22:54:00,
2013-09-09 19:12:00,71.0,59.0,30.09,NNW,342,3.0,7.0,66,0.00,,,0.00,,2013-09-09 23:12:00,
2013-09-09 19:22:00,71.0,60.0,30.09,NNW,348,3.0,7.0,68,0.00,,,0.00,,2013-09-09 23:22:00,
2013-09-09 19:34:00,71.0,60.0,30.09,NNW,348,3.0,7.0,68,0.00,,,0.00,,2013-09-09 23:34:00,
2013-09-09 19:52:00,70.0,60.0,30.09,North,349,4.0,6.0,71,0.00,,,0.00,,2013-09-09 23:52:00,
2013-09-09 20:12:00,70.0,61.0,30.09,WNW,297,2.0,4.0,73,0.00,,,0.00,,2013-09-10 00:12:00,
2013-09-09 20:22:00,70.0,61.0,30.09,NW,323,1.0,3.0,74,0.00,,,0.00,,2013-09-10 00:22:00,
2013-09-09 20:42:00,69.0,61.0,30.10,WNW,301,3.0,6.0,77,0.00,,,0.00,,2013-09-10 00:42:00,
2013-09-09 20:52:00,69.0,62.0,30.10,NW,323,3.0,7.0,79,0.00,,,0.00,,2013-09-10 00:52:00,
2013-09-09 21:12:00,69.0,63.0,30.11,NW,323,4.0,6.0,81,0.00,,,0.00,,2013-09-10 01:12:00,
2013-09-09 21:21:00,68.0,62.0,30.11,NNW,338,4.0,10.0,82,0.00,,,0.00,,2013-09-10 01:21:00,
2013-09-09 21:42:00,68.0,63.0,30.11,North,358,4.0,7.0,83,0.00,,,0.00,,2013-09-10 01:42:00,
2013-09-09 21:52:00,68.0,63.0,30.11,NW,307,4.0,8.0,83,0.00,,,0.00,,2013-09-10 01:52:00,
2013-09-09 22:12:00,68.0,63.0,30.11,North,6,4.0,10.0,84,0.00,,,0.00,,2013-09-10 02:12:00,
2013-09-09 22:22:00,67.0,62.0,30.11,NNW,342,5.0,9.0,85,0.00,,,0.00,,2013-09-10 02:22:00,
2013-09-09 22:42:00,67.0,63.0,30.11,North,349,7.0,10.0,86,0.00,,,0.00,,2013-09-10 02:42:00,
2013-09-09 22:52:00,67.0,63.0,30.11,NNW,340,8.0,11.0,87,0.00,,,0.00,,2013-09-10 02:52:00,
2013-09-09 23:12:00,67.0,63.0,30.11,North,358,5.0,11.0,88,0.00,,,0.00,,2013-09-10 03:12:00,
2013-09-09 23:22:00,67.0,63.0,30.11,North,6,7.0,10.0,88,0.00,,,0.00,,2013-09-10 03:22:00,
2013-09-09 23:54:00,67.0,64.0,30.10,North,359,7.0,10.0,90,0.00,,,0.00,,2013-09-10 03:54:00,